Starlink 31188

operational
NORAD ID: 58804 Int'l Des: 2024-012 Owner: SPXS Country: US Constellation: starlink
LEOCIRCULAR

About Starlink 31188

Description loading...

Live Position

Loading 3D Globe...

Upcoming Passes

Altitude History

Altitude vs Time

uPlot chart will show altitude changes over time

Two-Line Element Set

1 58804U 24012T 25303.69435164 .00000307 00000-0 20686-4 0 9991
2 58804 43.0020 179.4943 0001088 262.1671 97.9057 15.27578895101359
Epoch: Oct 30, 2025 • Age: 15 hours

Current Status

Altitude 494.3 km
Velocity 7.62 km/s
Sub-Earth Point -39.76°S, 47.37°W
Launch Date Jan 15, 2024
Age 1.7 years
Type internet

Technical Details

Classification Payload
Mass 730.00 kg
Dry Mass 700.00 kg
Total Mass 730.00 kg
Length 0.30 m
Diameter 4.10 m
Span 29.00 m
Shape Box + pan
Manufacturer SPXS
Bus Type Starlink V2M
Phase Status In Orbit
Owner/State SPXS/US

Large Constellations

Loading constellations...